| time (UTC) | temp F | wind direction | speed MPH | gust MPH | rain 1hr in | rain 24hr in | rain mn in | humidity % | barometer mb |
| 20260509104917 | 57 | 41 | 0.0 | 0.0 | 0.00 | 0.00 | 0.00 | 96 | 3400.9 |
| 20260509104413 | 57 | 41 | 0.0 | 0.0 | 0.00 | 0.00 | 0.00 | 95 | 3400.9 |
| 20260509103911 | 57 | 37 | 0.0 | 0.0 | 0.00 | 0.00 | 0.00 | 95 | 3400.9 |
| 20260509103408 | 57 | 89 | 0.0 | 0.0 | 0.00 | 0.00 | 0.00 | 95 | 3400.5 |
| 20260509102907 | 57 | 88 | 0.0 | 0.0 | 0.00 | 0.00 | 0.00 | 94 | 3400.6 |
| 20260509102404 | 58 | 87 | 0.0 | 0.0 | 0.00 | 0.00 | 0.00 | 94 | 3400.3 |
| 20260509101859 | 58 | 87 | 0.0 | 0.0 | 0.00 | 0.00 | 0.00 | 94 | 3400.3 |
| 20260509101355 | 58 | 50 | 0.0 | 0.0 | 0.00 | 0.00 | 0.00 | 93 | 3400.6 |
| 20260509100853 | 58 | 94 | 0.0 | 0.0 | 0.00 | 0.00 | 0.00 | 93 | 3400.8 |
| 20260509100350 | 58 | 96 | 0.0 | 0.0 | 0.00 | 0.00 | 0.00 | 93 | 3400.8 |
| 20260509095847 | 58 | 84 | 0.0 | 0.0 | 0.00 | 0.00 | 0.00 | 92 | 3400.7 |
| 20260509095344 | 58 | 88 | 0.0 | 0.0 | 0.00 | 0.00 | 0.00 | 92 | 3400.9 |
| 20260509094841 | 58 | 91 | 0.0 | 0.0 | 0.00 | 0.00 | 0.00 | 92 | 3401.1 |
| 20260509094338 | 58 | 29 | 1.0 | 2.0 | 0.00 | 0.00 | 0.00 | 91 | 3400.8 |
| 20260509093836 | 58 | 132 | 0.0 | 0.0 | 0.00 | 0.00 | 0.00 | 91 | 3400.8 |
| 20260509093332 | 59 | 132 | 0.0 | 0.0 | 0.00 | 0.00 | 0.00 | 90 | 3400.9 |
| 20260509092831 | 59 | 100 | 0.0 | 0.0 | 0.00 | 0.00 | 0.00 | 90 | 3400.9 |
| 20260509092328 | 59 | 68 | 1.0 | 2.0 | 0.00 | 0.00 | 0.00 | 89 | 3400.9 |
| 20260509091826 | 59 | 134 | 0.0 | 0.0 | 0.00 | 0.00 | 0.00 | 88 | 3401.3 |
| 20260509091323 | 59 | 126 | 0.0 | 0.0 | 0.00 | 0.00 | 0.00 | 87 | 3401.0 |
| 20260509090820 | 60 | 85 | 0.0 | 2.0 | 0.00 | 0.00 | 0.00 | 86 | 3400.7 |
| 20260509090317 | 59 | 59 | 0.0 | 2.0 | 0.00 | 0.00 | 0.00 | 85 | 3401.0 |
| 20260509085815 | 59 | 72 | 0.0 | 0.0 | 0.00 | 0.00 | 0.00 | 85 | 3400.9 |
| 20260509085312 | 59 | 159 | 0.0 | 0.0 | 0.00 | 0.00 | 0.00 | 84 | 3400.8 |
| 20260509084808 | 59 | 158 | 0.0 | 0.0 | 0.00 | 0.00 | 0.00 | 84 | 3400.9 |
| 20260509084306 | 59 | 158 | 0.0 | 0.0 | 0.00 | 0.00 | 0.00 | 84 | 3400.6 |
| 20260509083803 | 59 | 158 | 0.0 | 0.0 | 0.00 | 0.00 | 0.00 | 83 | 3400.9 |
| 20260509083300 | 60 | 158 | 0.0 | 0.0 | 0.00 | 0.00 | 0.00 | 83 | 3401.1 |
| 20260509082756 | 59 | 158 | 0.0 | 0.0 | 0.00 | 0.00 | 0.00 | 83 | 3401.1 |
| 20260509082253 | 60 | 159 | 0.0 | 0.0 | 0.00 | 0.00 | 0.00 | 83 | 3401.2 |
| 20260509081750 | 60 | 150 | 0.0 | 0.0 | 0.00 | 0.00 | 0.00 | 82 | 3401.3 |
| 20260509081247 | 59 | 199 | 1.0 | 2.0 | 0.00 | 0.00 | 0.00 | 82 | 3401.3 |
| 20260509080745 | 59 | 256 | 0.0 | 0.0 | 0.00 | 0.00 | 0.00 | 82 | 3401.5 |
| 20260509080243 | 59 | 154 | 0.0 | 0.0 | 0.00 | 0.00 | 0.00 | 82 | 3401.5 |
| 20260509075741 | 59 | 154 | 0.0 | 0.0 | 0.00 | 0.00 | 0.00 | 82 | 3401.4 |
| 20260509075238 | 59 | 155 | 0.0 | 0.0 | 0.00 | 0.00 | 0.00 | 81 | 3401.2 |
| 20260509074735 | 59 | 155 | 0.0 | 0.0 | 0.00 | 0.00 | 0.00 | 81 | 3401.5 |
| 20260509074233 | 59 | 155 | 0.0 | 0.0 | 0.00 | 0.00 | 0.00 | 81 | 3401.6 |
| 20260509073728 | 60 | 155 | 0.0 | 0.0 | 0.00 | 0.00 | 0.00 | 81 | 3401.4 |
| 20260509073225 | 60 | 155 | 0.0 | 0.0 | 0.00 | 0.00 | 0.00 | 80 | 3401.5 |
| 20260509072722 | 60 | 155 | 0.0 | 0.0 | 0.00 | 0.00 | 0.00 | 80 | 3401.5 |
| 20260509072219 | 60 | 156 | 0.0 | 0.0 | 0.00 | 0.00 | 0.00 | 80 | 3401.5 |
| 20260509071715 | 60 | 154 | 3.0 | 3.0 | 0.00 | 0.00 | 0.00 | 80 | 3401.6 |
| 20260509071213 | 59 | 153 | 0.0 | 0.0 | 0.00 | 0.00 | 0.00 | 81 | 3401.5 |
| 20260509070709 | 60 | 153 | 0.0 | 0.0 | 0.00 | 0.00 | 0.00 | 81 | 3401.4 |
| 20260509070206 | 59 | 154 | 1.0 | 2.0 | 0.00 | 0.00 | 0.00 | 80 | 3401.4 |
| 20260509065702 | 59 | 153 | 0.0 | 0.0 | 0.00 | 0.00 | 0.00 | 80 | 3401.4 |
| 20260509065158 | 59 | 154 | 0.0 | 0.0 | 0.00 | 0.00 | 0.00 | 79 | 3401.4 |
| 20260509064655 | 59 | 154 | 0.0 | 0.0 | 0.00 | 0.00 | 0.00 | 80 | 3401.4 |
| 20260509064153 | 59 | 151 | 0.0 | 2.0 | 0.00 | 0.00 | 0.00 | 80 | 3401.5 |
| 20260509063650 | 59 | 151 | 0.0 | 0.0 | 0.00 | 0.00 | 0.00 | 80 | 3401.6 |
| 20260509063146 | 59 | 151 | 0.0 | 0.0 | 0.00 | 0.00 | 0.00 | 80 | 3401.5 |
| 20260509062643 | 59 | 151 | 0.0 | 0.0 | 0.00 | 0.00 | 0.00 | 80 | 3401.4 |
| 20260509062140 | 58 | 152 | 0.0 | 0.0 | 0.00 | 0.00 | 0.00 | 80 | 3401.6 |
| 20260509061637 | 58 | 152 | 0.0 | 0.0 | 0.00 | 0.00 | 0.00 | 80 | 3401.6 |
| 20260509061135 | 58 | 153 | 0.0 | 0.0 | 0.00 | 0.00 | 0.00 | 81 | 3401.7 |
| 20260509060632 | 58 | 153 | 0.0 | 0.0 | 0.00 | 0.00 | 0.00 | 81 | 3401.7 |
| 20260509060128 | 58 | 148 | 0.0 | 0.0 | 0.00 | 0.00 | 0.00 | 82 | 3401.8 |
| 20260509055623 | 57 | 148 | 0.0 | 0.0 | 0.00 | 0.00 | 0.00 | 81 | 3402.0 |
| 20260509055119 | 57 | 148 | 0.0 | 0.0 | 0.00 | 0.00 | 0.00 | 83 | 3401.7 |
| 20260509054616 | 57 | 148 | 0.0 | 0.0 | 0.00 | 0.00 | 0.00 | 84 | 3401.7 |
| 20260509054114 | 56 | 148 | 0.0 | 0.0 | 0.00 | 0.00 | 0.00 | 85 | 3401.8 |
| 20260509053613 | 56 | 148 | 0.0 | 0.0 | 0.00 | 0.00 | 0.00 | 85 | 3401.8 |
| 20260509053109 | 56 | 148 | 0.0 | 0.0 | 0.00 | 0.00 | 0.00 | 86 | 3401.8 |
| 20260509052607 | 56 | 148 | 0.0 | 0.0 | 0.00 | 0.00 | 0.00 | 86 | 3401.9 |
| 20260509052105 | 56 | 148 | 0.0 | 0.0 | 0.00 | 0.00 | 0.00 | 86 | 3401.9 |
| 20260509051602 | 56 | 148 | 0.0 | 0.0 | 0.00 | 0.00 | 0.00 | 87 | 3401.9 |
| 20260509051059 | 56 | 149 | 0.0 | 0.0 | 0.00 | 0.00 | 0.00 | 86 | 3402.1 |
| 20260509050556 | 56 | 149 | 0.0 | 0.0 | 0.00 | 0.00 | 0.00 | 86 | 3402.2 |
| 20260509050052 | 56 | 149 | 0.0 | 0.0 | 0.00 | 0.00 | 0.00 | 85 | 3402.1 |
| 20260509045550 | 56 | 149 | 0.0 | 0.0 | 0.00 | 0.00 | 0.00 | 85 | 3402.1 |
| 20260509045047 | 56 | 149 | 0.0 | 0.0 | 0.00 | 0.00 | 0.00 | 84 | 3402.2 |
| 20260509044544 | 56 | 149 | 0.0 | 0.0 | 0.00 | 0.00 | 0.00 | 84 | 3402.2 |
| 20260509044042 | 56 | 149 | 0.0 | 0.0 | 0.00 | 0.00 | 0.00 | 85 | 3402.2 |
| 20260509043538 | 56 | 149 | 0.0 | 0.0 | 0.00 | 0.00 | 0.00 | 85 | 3402.1 |
| 20260509043033 | 55 | 149 | 0.0 | 0.0 | 0.00 | 0.00 | 0.00 | 85 | 3401.9 |
| 20260509042530 | 55 | 149 | 0.0 | 0.0 | 0.00 | 0.00 | 0.00 | 85 | 3402.3 |
| 20260509042026 | 55 | 149 | 0.0 | 0.0 | 0.00 | 0.00 | 0.00 | 85 | 3402.1 |
| 20260509041523 | 55 | 149 | 0.0 | 0.0 | 0.00 | 0.00 | 0.00 | 84 | 3401.9 |
| 20260509041021 | 55 | 149 | 0.0 | 0.0 | 0.00 | 0.00 | 0.00 | 84 | 3402.0 |
| 20260509040519 | 56 | 149 | 0.0 | 0.0 | 0.00 | 0.00 | 0.00 | 84 | 3401.9 |
| 20260509040015 | 56 | 149 | 0.0 | 0.0 | 0.00 | 0.00 | 0.00 | 84 | 3402.1 |
| 20260509035512 | 56 | 149 | 0.0 | 0.0 | 0.00 | 0.00 | 0.00 | 84 | 3402.0 |
| 20260509035009 | 56 | 149 | 0.0 | 0.0 | 0.00 | 0.00 | 0.00 | 84 | 3401.9 |
| 20260509034508 | 57 | 149 | 0.0 | 0.0 | 0.00 | 0.00 | 0.00 | 83 | 3402.1 |
| 20260509034004 | 57 | 149 | 0.0 | 0.0 | 0.00 | 0.00 | 0.00 | 82 | 3402.3 |
| 20260509033501 | 57 | 149 | 0.0 | 0.0 | 0.00 | 0.00 | 0.00 | 81 | 3402.3 |
| 20260509032957 | 57 | 149 | 0.0 | 0.0 | 0.00 | 0.00 | 0.00 | 81 | 3402.3 |
| 20260509032455 | 57 | 149 | 0.0 | 0.0 | 0.00 | 0.00 | 0.00 | 81 | 3402.2 |
| 20260509031952 | 57 | 149 | 0.0 | 0.0 | 0.00 | 0.00 | 0.00 | 82 | 3402.2 |
| 20260509031449 | 57 | 149 | 0.0 | 0.0 | 0.00 | 0.00 | 0.00 | 82 | 3402.3 |
| 20260509030946 | 57 | 149 | 0.0 | 0.0 | 0.00 | 0.00 | 0.00 | 81 | 3402.2 |
| 20260509030444 | 58 | 149 | 0.0 | 0.0 | 0.00 | 0.00 | 0.00 | 82 | 3402.2 |
| 20260509025941 | 58 | 149 | 0.0 | 0.0 | 0.00 | 0.00 | 0.00 | 81 | 3402.3 |
| 20260509025437 | 58 | 149 | 0.0 | 0.0 | 0.00 | 0.00 | 0.00 | 80 | 3402.2 |
| 20260509024932 | 59 | 149 | 0.0 | 0.0 | 0.00 | 0.00 | 0.00 | 80 | 3402.4 |
| 20260509024429 | 59 | 149 | 0.0 | 0.0 | 0.00 | 0.00 | 0.00 | 79 | 3402.3 |
| 20260509023925 | 60 | 149 | 0.0 | 0.0 | 0.00 | 0.00 | 0.00 | 78 | 3402.2 |
| 20260509023423 | 60 | 149 | 0.0 | 0.0 | 0.00 | 0.00 | 0.00 | 77 | 3402.6 |
| 20260509022919 | 60 | 149 | 0.0 | 2.0 | 0.00 | 0.00 | 0.00 | 76 | 3402.3 |
| 20260509022417 | 60 | 149 | 0.0 | 0.0 | 0.00 | 0.00 | 0.00 | 74 | 3402.6 |
| 20260509021914 | 60 | 149 | 0.0 | 0.0 | 0.00 | 0.00 | 0.00 | 76 | 3402.3 |
| 20260509021411 | 60 | 149 | 0.0 | 0.0 | 0.00 | 0.00 | 0.00 | 76 | 3402.3 |
| 20260509020908 | 60 | 149 | 0.0 | 0.0 | 0.00 | 0.00 | 0.00 | 76 | 3402.6 |
| 20260509020406 | 60 | 149 | 0.0 | 0.0 | 0.00 | 0.00 | 0.00 | 74 | 3402.7 |
| 20260509015903 | 60 | 149 | 0.0 | 0.0 | 0.00 | 0.00 | 0.00 | 74 | 3402.3 |
| 20260509015402 | 60 | 149 | 0.0 | 0.0 | 0.00 | 0.00 | 0.00 | 74 | 3402.3 |
| 20260509014858 | 61 | 149 | 0.0 | 0.0 | 0.00 | 0.00 | 0.00 | 74 | 3402.4 |
| 20260509014355 | 61 | 149 | 0.0 | 0.0 | 0.00 | 0.00 | 0.00 | 72 | 3402.3 |
| 20260509013851 | 61 | 149 | 0.0 | 0.0 | 0.00 | 0.00 | 0.00 | 72 | 3402.2 |
| 20260509013348 | 61 | 149 | 0.0 | 0.0 | 0.00 | 0.00 | 0.00 | 72 | 3402.1 |
| 20260509012844 | 62 | 149 | 0.0 | 0.0 | 0.00 | 0.00 | 0.00 | 71 | 3402.2 |
| 20260509012340 | 62 | 149 | 0.0 | 0.0 | 0.00 | 0.00 | 0.00 | 70 | 3402.3 |
| 20260509011838 | 63 | 149 | 0.0 | 0.0 | 0.00 | 0.00 | 0.00 | 68 | 3402.2 |
| 20260509011335 | 63 | 149 | 0.0 | 0.0 | 0.00 | 0.00 | 0.00 | 66 | 3402.2 |
| 20260509010833 | 64 | 149 | 0.0 | 0.0 | 0.00 | 0.00 | 0.00 | 66 | 3402.6 |
| 20260509010330 | 64 | 149 | 0.0 | 0.0 | 0.00 | 0.00 | 0.00 | 65 | 3402.2 |
| 20260509005828 | 65 | 149 | 0.0 | 0.0 | 0.00 | 0.00 | 0.00 | 65 | 3402.6 |
| 20260509005326 | 66 | 149 | 0.0 | 0.0 | 0.00 | 0.00 | 0.00 | 63 | 3402.6 |
| 20260509004826 | 66 | 149 | 0.0 | 0.0 | 0.00 | 0.00 | 0.00 | 61 | 3402.2 |
| 20260509004322 | 67 | 149 | 0.0 | 0.0 | 0.00 | 0.00 | 0.00 | 61 | 3402.4 |
| 20260509003820 | 67 | 149 | 0.0 | 0.0 | 0.00 | 0.00 | 0.00 | 60 | 3402.6 |
| 20260509003318 | 68 | 149 | 0.0 | 0.0 | 0.00 | 0.00 | 0.00 | 60 | 3402.3 |
| 20260509002815 | 68 | 149 | 0.0 | 0.0 | 0.00 | 0.00 | 0.00 | 59 | 3402.3 |
| 20260509002312 | 69 | 149 | 0.0 | 0.0 | 0.00 | 0.00 | 0.00 | 56 | 3402.4 |
| 20260509001810 | 69 | 149 | 0.0 | 0.0 | 0.00 | 0.00 | 0.00 | 55 | 3402.8 |
| 20260509001305 | 69 | 149 | 0.0 | 0.0 | 0.00 | 0.00 | 0.00 | 55 | 3402.3 |
| 20260509000803 | 70 | 149 | 0.0 | 0.0 | 0.00 | 0.00 | 0.00 | 54 | 3402.7 |
| 20260509000303 | 70 | 149 | 0.0 | 0.0 | 0.00 | 0.00 | 0.00 | 52 | 3402.7 |
| 20260508235757 | 70 | 149 | 0.0 | 0.0 | 0.00 | 0.00 | 0.00 | 52 | 3402.6 |
| 20260508235254 | 70 | 149 | 0.0 | 0.0 | 0.00 | 0.00 | 0.00 | 52 | 3402.6 |
| 20260508234751 | 71 | 200 | 1.0 | 3.0 | 0.00 | 0.00 | 0.00 | 50 | 3402.9 |
| 20260508234247 | 71 | 138 | 0.0 | 0.0 | 0.00 | 0.00 | 0.00 | 50 | 3402.6 |
| 20260508233741 | 71 | 105 | 0.0 | 0.0 | 0.00 | 0.00 | 0.00 | 52 | 3402.7 |
| 20260508233239 | 71 | 97 | 0.0 | 0.0 | 0.00 | 0.00 | 0.00 | 48 | 3402.8 |
| 20260508232736 | 71 | 115 | 0.0 | 0.0 | 0.00 | 0.00 | 0.00 | 48 | 3402.7 |
| 20260508232232 | 72 | 117 | 0.0 | 0.0 | 0.00 | 0.00 | 0.00 | 48 | 3402.8 |
| 20260508231730 | 72 | 153 | 1.0 | 2.0 | 0.00 | 0.00 | 0.00 | 48 | 3403.0 |
| 20260508231227 | 73 | 138 | 1.0 | 2.0 | 0.00 | 0.00 | 0.00 | 46 | 3402.9 |
| 20260508230724 | 73 | 82 | 0.0 | 0.0 | 0.00 | 0.00 | 0.00 | 46 | 3403.0 |
| 20260508230220 | 75 | 39 | 3.0 | 3.0 | 0.00 | 0.00 | 0.00 | 46 | 3403.0 |
| 20260508225718 | 75 | 131 | 1.0 | 2.0 | 0.00 | 0.00 | 0.00 | 44 | 3403.0 |
| 20260508225214 | 75 | 118 | 1.0 | 2.0 | 0.00 | 0.00 | 0.00 | 44 | 3403.0 |
| 20260508224712 | 75 | 112 | 1.0 | 2.0 | 0.00 | 0.00 | 0.00 | 45 | 3402.9 |
| 20260508224209 | 75 | 54 | 4.0 | 7.0 | 0.00 | 0.00 | 0.00 | 45 | 3403.0 |
| 20260508223707 | 75 | 154 | 1.0 | 2.0 | 0.00 | 0.00 | 0.00 | 46 | 3403.1 |
| 20260508223204 | 75 | 142 | 2.0 | 3.0 | 0.00 | 0.00 | 0.00 | 47 | 3403.1 |
| 20260508222701 | 75 | 126 | 1.0 | 2.0 | 0.00 | 0.00 | 0.00 | 44 | 3403.2 |
| 20260508222158 | 75 | 170 | 2.0 | 3.0 | 0.00 | 0.00 | 0.00 | 44 | 3403.2 |
| 20260508221654 | 75 | 115 | 0.0 | 0.0 | 0.00 | 0.00 | 0.00 | 44 | 3403.2 |
| 20260508221150 | 76 | 175 | 2.0 | 5.0 | 0.00 | 0.00 | 0.00 | 43 | 3403.3 |
| 20260508220647 | 76 | 161 | 1.0 | 2.0 | 0.00 | 0.00 | 0.00 | 46 | 3403.3 |
| 20260508220144 | 76 | 154 | 2.0 | 3.0 | 0.00 | 0.00 | 0.00 | 46 | 3403.1 |
| 20260508215640 | 76 | 163 | 5.0 | 7.0 | 0.00 | 0.00 | 0.00 | 44 | 3402.9 |
| 20260508215137 | 76 | 172 | 2.0 | 2.0 | 0.00 | 0.00 | 0.00 | 45 | 3403.0 |
| 20260508214634 | 75 | 88 | 1.0 | 2.0 | 0.00 | 0.00 | 0.00 | 45 | 3403.0 |
| 20260508214131 | 76 | 79 | 2.0 | 3.0 | 0.00 | 0.00 | 0.00 | 45 | 3403.0 |
| 20260508213628 | 76 | 141 | 2.0 | 3.0 | 0.00 | 0.00 | 0.00 | 45 | 3403.1 |
| 20260508213124 | 75 | 124 | 0.0 | 0.0 | 0.00 | 0.00 | 0.00 | 44 | 3403.1 |
| 20260508212620 | 75 | 106 | 1.0 | 2.0 | 0.00 | 0.00 | 0.00 | 48 | 3403.2 |
| 20260508212117 | 75 | 107 | 1.0 | 2.0 | 0.00 | 0.00 | 0.00 | 46 | 3403.5 |
| 20260508211612 | 74 | 158 | 3.0 | 5.0 | 0.00 | 0.00 | 0.00 | 46 | 3403.4 |
| 20260508211109 | 75 | 117 | 2.0 | 3.0 | 0.00 | 0.00 | 0.00 | 46 | 3403.3 |
| 20260508210605 | 75 | 162 | 2.0 | 3.0 | 0.00 | 0.00 | 0.00 | 50 | 3403.4 |
| 20260508210103 | 74 | 99 | 0.0 | 0.0 | 0.00 | 0.00 | 0.00 | 47 | 3403.5 |
| 20260508205600 | 73 | 123 | 3.0 | 3.0 | 0.00 | 0.00 | 0.00 | 48 | 3403.6 |
| 20260508205056 | 73 | 84 | 2.0 | 3.0 | 0.00 | 0.00 | 0.00 | 46 | 3403.5 |
| 20260508204553 | 73 | 151 | 3.0 | 3.0 | 0.00 | 0.00 | 0.00 | 50 | 3403.8 |
| 20260508204048 | 73 | 87 | 0.0 | 0.0 | 0.00 | 0.00 | 0.00 | 46 | 3403.8 |
| 20260508203545 | 73 | 117 | 1.0 | 2.0 | 0.00 | 0.00 | 0.00 | 49 | 3403.8 |
| 20260508203041 | 73 | 100 | 2.0 | 2.0 | 0.00 | 0.00 | 0.00 | 45 | 3403.9 |
| 20260508202538 | 74 | 70 | 4.0 | 5.0 | 0.00 | 0.00 | 0.00 | 45 | 3403.8 |
| 20260508202035 | 73 | 152 | 2.0 | 5.0 | 0.00 | 0.00 | 0.00 | 47 | 3404.0 |
| 20260508201532 | 73 | 189 | 2.0 | 3.0 | 0.00 | 0.00 | 0.00 | 46 | 3404.1 |
| 20260508201028 | 73 | 74 | 4.0 | 5.0 | 0.00 | 0.00 | 0.00 | 44 | 3404.2 |
| 20260508200526 | 73 | 97 | 0.0 | 2.0 | 0.00 | 0.00 | 0.00 | 49 | 3404.4 |
| 20260508200021 | 73 | 115 | 2.0 | 3.0 | 0.00 | 0.00 | 0.00 | 45 | 3404.4 |
| 20260508195518 | 73 | 98 | 0.0 | 0.0 | 0.00 | 0.00 | 0.00 | 48 | 3404.6 |
| 20260508195014 | 73 | 138 | 4.0 | 5.0 | 0.00 | 0.00 | 0.00 | 45 | 3404.8 |
| 20260508194511 | 74 | 115 | 3.0 | 3.0 | 0.00 | 0.00 | 0.00 | 45 | 3404.8 |
| 20260508194009 | 74 | 130 | 2.0 | 3.0 | 0.00 | 0.00 | 0.00 | 46 | 3404.8 |
| 20260508193505 | 74 | 85 | 1.0 | 2.0 | 0.00 | 0.00 | 0.00 | 43 | 3405.1 |
| 20260508193002 | 73 | 107 | 1.0 | 2.0 | 0.00 | 0.00 | 0.00 | 49 | 3405.2 |
| 20260508192458 | 73 | 166 | 2.0 | 3.0 | 0.00 | 0.00 | 0.00 | 48 | 3405.3 |
| 20260508191955 | 73 | 283 | 6.0 | 8.0 | 0.00 | 0.00 | 0.00 | 44 | 3405.5 |
| 20260508191452 | 73 | 93 | 2.0 | 3.0 | 0.00 | 0.00 | 0.00 | 47 | 3405.2 |
| 20260508190949 | 73 | 266 | 3.0 | 7.0 | 0.00 | 0.00 | 0.00 | 45 | 3405.5 |
| 20260508190446 | 73 | 185 | 2.0 | 3.0 | 0.00 | 0.00 | 0.00 | 44 | 3405.7 |
| 20260508185942 | 73 | 136 | 0.0 | 2.0 | 0.00 | 0.00 | 0.00 | 46 | 3405.5 |
| 20260508185440 | 73 | 15 | 2.0 | 3.0 | 0.00 | 0.00 | 0.00 | 45 | 3405.7 |
| 20260508184937 | 73 | 186 | 2.0 | 2.0 | 0.00 | 0.00 | 0.00 | 45 | 3405.6 |
| 20260508184435 | 73 | 147 | 0.0 | 2.0 | 0.00 | 0.00 | 0.00 | 46 | 3405.9 |
| 20260508183931 | 73 | 130 | 4.0 | 7.0 | 0.00 | 0.00 | 0.00 | 43 | 3405.8 |
| 20260508183428 | 73 | 104 | 2.0 | 3.0 | 0.00 | 0.00 | 0.00 | 45 | 3405.7 |
| 20260508182923 | 72 | 84 | 1.0 | 2.0 | 0.00 | 0.00 | 0.00 | 45 | 3405.7 |
| 20260508182420 | 73 | 164 | 3.0 | 5.0 | 0.00 | 0.00 | 0.00 | 44 | 3405.8 |
| 20260508181915 | 73 | 127 | 0.0 | 0.0 | 0.00 | 0.00 | 0.00 | 45 | 3405.8 |
| 20260508181412 | 72 | 110 | 1.0 | 2.0 | 0.00 | 0.00 | 0.00 | 46 | 3405.9 |
| 20260508180910 | 73 | 95 | 1.0 | 2.0 | 0.00 | 0.00 | 0.00 | 47 | 3406.0 |
| 20260508180406 | 73 | 193 | 3.0 | 5.0 | 0.00 | 0.00 | 0.00 | 48 | 3406.2 |
| 20260508175902 | 73 | 171 | 4.0 | 5.0 | 0.00 | 0.00 | 0.00 | 48 | 3406.0 |
| 20260508175359 | 72 | 93 | 0.0 | 2.0 | 0.00 | 0.00 | 0.00 | 49 | 3405.8 |
| 20260508174857 | 72 | 161 | 2.0 | 3.0 | 0.00 | 0.00 | 0.00 | 46 | 3406.0 |
| 20260508174354 | 71 | 126 | 0.0 | 2.0 | 0.00 | 0.00 | 0.00 | 49 | 3406.0 |
| 20260508173850 | 72 | 106 | 4.0 | 5.0 | 0.00 | 0.00 | 0.00 | 46 | 3405.8 |
| 20260508173348 | 71 | 103 | 1.0 | 2.0 | 0.00 | 0.00 | 0.00 | 43 | 3406.2 |
| 20260508172843 | 72 | 159 | 2.0 | 2.0 | 0.00 | 0.00 | 0.00 | 47 | 3406.3 |
| 20260508172341 | 71 | 162 | 3.0 | 5.0 | 0.00 | 0.00 | 0.00 | 50 | 3406.6 |
| 20260508171837 | 71 | 177 | 2.0 | 3.0 | 0.00 | 0.00 | 0.00 | 47 | 3406.5 |
| 20260508171334 | 71 | 175 | 3.0 | 5.0 | 0.00 | 0.00 | 0.00 | 45 | 3406.7 |
| 20260508170830 | 71 | 338 | 1.0 | 5.0 | 0.00 | 0.00 | 0.00 | 47 | 3406.7 |
| 20260508170328 | 71 | 195 | 2.0 | 3.0 | 0.00 | 0.00 | 0.00 | 46 | 3406.9 |
| 20260508165825 | 70 | 88 | 0.0 | 0.0 | 0.00 | 0.00 | 0.00 | 49 | 3407.0 |
| 20260508165322 | 69 | 199 | 2.0 | 3.0 | 0.00 | 0.00 | 0.00 | 49 | 3407.0 |
| 20260508164818 | 69 | 122 | 0.0 | 2.0 | 0.00 | 0.00 | 0.00 | 54 | 3407.0 |
| 20260508164315 | 70 | 119 | 3.0 | 5.0 | 0.00 | 0.00 | 0.00 | 47 | 3407.2 |
| 20260508163813 | 70 | 24 | 2.0 | 3.0 | 0.00 | 0.00 | 0.00 | 50 | 3407.3 |
| 20260508163310 | 69 | 84 | 1.0 | 2.0 | 0.00 | 0.00 | 0.00 | 50 | 3407.4 |
| 20260508162806 | 69 | 89 | 2.0 | 2.0 | 0.00 | 0.00 | 0.00 | 53 | 3407.7 |
| 20260508162306 | 69 | 139 | 1.0 | 3.0 | 0.00 | 0.00 | 0.00 | 55 | 3407.7 |
| 20260508161801 | 68 | 5 | 8.0 | 11.0 | 0.00 | 0.00 | 0.00 | 52 | 3407.7 |
| 20260508161257 | 68 | 165 | 2.0 | 3.0 | 0.00 | 0.00 | 0.00 | 53 | 3407.9 |
| 20260508160755 | 68 | 138 | 1.0 | 2.0 | 0.00 | 0.00 | 0.00 | 53 | 3408.0 |
| 20260508160253 | 68 | 85 | 1.0 | 2.0 | 0.00 | 0.00 | 0.00 | 55 | 3408.3 |
| 20260508155749 | 68 | 142 | 0.0 | 2.0 | 0.00 | 0.00 | 0.00 | 54 | 3408.3 |
| 20260508155246 | 67 | 303 | 2.0 | 3.0 | 0.00 | 0.00 | 0.00 | 53 | 3408.2 |
| 20260508154743 | 67 | 152 | 1.0 | 2.0 | 0.00 | 0.00 | 0.00 | 59 | 3408.5 |
| 20260508154241 | 67 | 173 | 1.0 | 2.0 | 0.00 | 0.00 | 0.00 | 54 | 3408.5 |
| 20260508153737 | 66 | 150 | 0.0 | 0.0 | 0.00 | 0.00 | 0.00 | 54 | 3408.5 |
| 20260508153235 | 66 | 108 | 2.0 | 2.0 | 0.00 | 0.00 | 0.00 | 59 | 3408.6 |
| 20260508152731 | 66 | 144 | 0.0 | 0.0 | 0.00 | 0.00 | 0.00 | 56 | 3408.6 |
| 20260508152227 | 65 | 133 | 1.0 | 2.0 | 0.00 | 0.00 | 0.00 | 58 | 3408.5 |
| 20260508151723 | 65 | 135 | 1.0 | 3.0 | 0.00 | 0.00 | 0.00 | 58 | 3408.7 |
| 20260508151220 | 65 | 100 | 0.0 | 0.0 | 0.00 | 0.00 | 0.00 | 59 | 3408.5 |
| 20260508150717 | 64 | 146 | 2.0 | 3.0 | 0.00 | 0.00 | 0.00 | 58 | 3408.6 |
| 20260508150214 | 64 | 151 | 1.0 | 2.0 | 0.00 | 0.00 | 0.00 | 55 | 3408.7 |
| 20260508145709 | 64 | 150 | 2.0 | 3.0 | 0.00 | 0.00 | 0.00 | 59 | 3408.8 |
| 20260508145206 | 63 | 117 | 0.0 | 2.0 | 0.00 | 0.00 | 0.00 | 58 | 3408.6 |
| 20260508144703 | 63 | 166 | 2.0 | 3.0 | 0.00 | 0.00 | 0.00 | 57 | 3408.8 |
| 20260508144201 | 63 | 162 | 1.0 | 3.0 | 0.00 | 0.00 | 0.00 | 58 | 3408.7 |
| 20260508143658 | 63 | 252 | 3.0 | 5.0 | 0.00 | 0.00 | 0.00 | 60 | 3408.7 |
| 20260508143155 | 62 | 166 | 0.0 | 0.0 | 0.00 | 0.00 | 0.00 | 60 | 3408.7 |
| 20260508142651 | 62 | 163 | 1.0 | 2.0 | 0.00 | 0.00 | 0.00 | 61 | 3408.7 |
| 20260508142148 | 61 | 177 | 3.0 | 7.0 | 0.00 | 0.00 | 0.00 | 61 | 3408.8 |
| 20260508141644 | 61 | 157 | 1.0 | 2.0 | 0.00 | 0.00 | 0.00 | 63 | 3408.8 |
| 20260508141142 | 60 | 110 | 4.0 | 7.0 | 0.00 | 0.00 | 0.00 | 66 | 3408.9 |
| 20260508140640 | 60 | 271 | 0.0 | 0.0 | 0.00 | 0.00 | 0.00 | 71 | 3408.9 |
| 20260508140136 | 59 | 160 | 2.0 | 2.0 | 0.00 | 0.00 | 0.00 | 72 | 3409.0 |
| 20260508135631 | 59 | 160 | 0.0 | 0.0 | 0.00 | 0.00 | 0.00 | 73 | 3408.9 |
| 20260508135127 | 58 | 160 | 0.0 | 0.0 | 0.00 | 0.00 | 0.00 | 74 | 3409.2 |
| 20260508134625 | 57 | 160 | 0.0 | 0.0 | 0.00 | 0.00 | 0.00 | 74 | 3409.0 |
| 20260508134122 | 57 | 160 | 0.0 | 0.0 | 0.00 | 0.00 | 0.00 | 77 | 3409.0 |
| 20260508133618 | 56 | 160 | 0.0 | 0.0 | 0.00 | 0.00 | 0.00 | 77 | 3409.2 |
| 20260508133116 | 55 | 160 | 0.0 | 0.0 | 0.00 | 0.00 | 0.00 | 77 | 3409.0 |
| 20260508132614 | 55 | 160 | 0.0 | 0.0 | 0.00 | 0.00 | 0.00 | 77 | 3409.1 |
| 20260508132110 | 54 | 160 | 0.0 | 0.0 | 0.00 | 0.00 | 0.00 | 76 | 3409.2 |
| 20260508131606 | 53 | 161 | 1.0 | 2.0 | 0.00 | 0.00 | 0.00 | 77 | 3409.2 |
| 20260508131103 | 52 | 142 | 0.0 | 2.0 | 0.00 | 0.00 | 0.00 | 78 | 3409.0 |
| 20260508130559 | 51 | 134 | 1.0 | 2.0 | 0.00 | 0.00 | 0.00 | 81 | 3408.8 |
| 20260508130056 | 50 | 129 | 0.0 | 0.0 | 0.00 | 0.00 | 0.00 | 87 | 3409.0 |
| 20260508125551 | 49 | 127 | 2.0 | 3.0 | 0.00 | 0.00 | 0.00 | 92 | 3408.9 |
| 20260508125050 | 48 | 89 | 1.0 | 2.0 | 0.00 | 0.00 | 0.00 | 97 | 3409.0 |
| 20260508124548 | 47 | 60 | 0.0 | 0.0 | 0.00 | 0.00 | 0.00 | 99 | 3408.7 |
| 20260508124044 | 47 | 51 | 0.0 | 0.0 | 0.00 | 0.00 | 0.00 | 99 | 3409.0 |
| 20260508123543 | 46 | 49 | 0.0 | 0.0 | 0.00 | 0.00 | 0.00 | 99 | 3408.8 |
| 20260508123039 | 46 | 49 | 0.0 | 0.0 | 0.00 | 0.00 | 0.00 | 99 | 3408.7 |
| 20260508122536 | 45 | 46 | 0.0 | 0.0 | 0.00 | 0.00 | 0.00 | 99 | 3408.8 |
| 20260508122033 | 45 | 46 | 0.0 | 0.0 | 0.00 | 0.00 | 0.00 | 99 | 3408.9 |
| 20260508121531 | 44 | 46 | 0.0 | 0.0 | 0.00 | 0.00 | 0.00 | 99 | 3408.7 |
| 20260508121029 | 43 | 46 | 0.0 | 0.0 | 0.00 | 0.00 | 0.00 | 99 | 3408.6 |
| 20260508120526 | 43 | 46 | 0.0 | 0.0 | 0.00 | 0.00 | 0.00 | 99 | 3408.7 |
| 20260508120024 | 42 | 46 | 0.0 | 0.0 | 0.00 | 0.00 | 0.00 | 99 | 3408.7 |
| 20260508115521 | 42 | 46 | 0.0 | 0.0 | 0.00 | 0.00 | 0.00 | 99 | 3408.7 |
| 20260508115018 | 42 | 47 | 0.0 | 0.0 | 0.00 | 0.00 | 0.00 | 99 | 3408.6 |
| 20260508114514 | 42 | 47 | 0.0 | 0.0 | 0.00 | 0.00 | 0.00 | 99 | 3408.7 |
| 20260508114011 | 41 | 47 | 0.0 | 0.0 | 0.00 | 0.00 | 0.00 | 99 | 3408.8 |
| 20260508113509 | 41 | 47 | 0.0 | 0.0 | 0.00 | 0.00 | 0.00 | 99 | 3408.8 |
| 20260508113006 | 41 | 47 | 0.0 | 0.0 | 0.00 | 0.00 | 0.00 | 99 | 3408.7 |
| 20260508112502 | 41 | 47 | 0.0 | 0.0 | 0.00 | 0.00 | 0.00 | 99 | 3408.7 |
| 20260508111959 | 41 | 47 | 0.0 | 0.0 | 0.00 | 0.00 | 0.00 | 99 | 3408.5 |
| 20260508111456 | 40 | 47 | 0.0 | 0.0 | 0.00 | 0.00 | 0.00 | 99 | 3408.5 |
| 20260508110953 | 40 | 47 | 0.0 | 0.0 | 0.00 | 0.00 | 0.00 | 99 | 3408.5 |
| 20260508110451 | 40 | 47 | 0.0 | 0.0 | 0.00 | 0.00 | 0.00 | 99 | 3408.4 |
| 20260508105950 | 40 | 47 | 0.0 | 0.0 | 0.00 | 0.00 | 0.00 | 99 | 3408.3 |
| 20260508105447 | 40 | 47 | 0.0 | 0.0 | 0.00 | 0.00 | 0.00 | 99 | 3408.3 |